{"data":{"norad_id":87590,"intl_designator":"","name":"UNKNOWN","alt_names":[],"object_type":"UNKNOWN","status":"UNKNOWN","operator":null,"country":null,"launch_date":null,"launch_site_code":null,"launch_vehicle":null,"mission":null,"orbit_class":"UNKNOWN","rcs_meters":null,"size_class":null,"mass_kg":null,"dimensions":null,"purposes":[],"wikipedia_slug":null,"has_3d_model":false,"image_url":null,"decayed_at":null,"tle_current":{"epoch":"2026-09-09T01:19:20.144064Z","epoch_age_seconds":1006482,"freshness":"AGED","line1":"1 87590U          26252.05509426  .00000369  00000+0  23003-3 0  9995","line2":"2 87590  98.7596 287.6528 0025697 236.7823 153.4340 14.10635354192355","mean_motion":14.10635354,"eccentricity":0.0025697,"inclination_deg":98.7596,"raan_deg":287.6528,"arg_perigee_deg":236.7823,"mean_anomaly_deg":153.434,"bstar":0.00023003,"rev_number":19235,"period_min":102.08166099884,"perigee_km":838.60571256664,"apogee_km":875.79099508409,"semimajor_km":7235.3353538254,"source":"CELESTRAK","updated_at":"2026-09-20T09:00:32.477065Z"}}}